Погода в Большой Риге

Россия / Курганская область     55°35′22″N   63°13′40″E
темп.,
°C
ветер,
м/с
пор.,
м/с
влажн.,
%
обл.,
%
осадки,
мм/ч
давл.,
гПа
погр.,
м
30 июня, чт
чт3023:00+8зюз3592100 0.1 100673
02:00+7сз46885 0.0 100686
05:00+6сз37875 0.0 1006100
08:00+12зсз34735 0.0 1007292
11:00+17зсз2357100 0.0 1007988
14:00+17з225932 0.6 10071247
17:00+18сз236350 1.3 10071221
20:00+16ссв227672 0.2 100823
1 июля, пт
пт123:00+11св338399 0.4 101021
02:00+9св228213 0.0 101015
05:00+8св228749 0.0 101234
08:00+13св34745 0.0 1013345
11:00+16ссв33615 0.0 1013827
14:00+18ссз34575 0.0 10131289
17:00+19ссз445719 0.0 10131586
20:00+16ссв22725 0.0 101327
2 июля, сб
сб223:00+12юз117211 0.0 101311
02:00+11зсз228019 0.0 101327
05:00+10сз338773 0.0 101353
08:00+15ссз2374100 0.0 1013286
11:00+18сз336342 0.0 1013918
14:00+19ссз225792 0.3 10131345
17:00+19с1258100 0.7 10121267
20:00+17ссв227220 0.1 101218
3 июля, вс
вс323:00+13всв00795 0.1 101210
02:00+12юз11814 0.0 101110
05:00+11зсз118214 0.0 101110
08:00+16зюз11726 0.0 1010272
11:00+20з115694 0.1 10091263
14:00+21ссз225092 0.0 10072018
17:00+20сз0165100 0.1 1006202
20:00+18з0069100 0.1 100511
4 июля, пн
пн423:00+15с367979 0.3 1005113
02:00+13ссв6109792 0.3 1005368
05:00+12ссв61097100 0.8 1006614
08:00+11ссв71296100 0.4 1007642
11:00+11ссв81386100 0.5 1009813
14:00+14св7106361 0.0 10091163
17:00+14с7968100 0.0 1010962
20:00+13с597282 0.1 1011396